Regional Weather Roundup
Issued by NWS

Home | Current Version | Previous Version | Text Only | Print | Product List | Glossary Off
Versions: 1 2 3 4 5 6 7 8 9 10 11 12 13 14 15 16 17 18 19 20 21 22 23 24 25 26 27 28 29 30 31 32 33 34 35 36 37 38 39 40 41 42 43 44 45 46 47 48 49 50

000
ASUS43 KMKX 221700
RWRWI

WISCONSIN REGIONAL WEATHER ROUNDUP
NATIONAL WEATHER SERVICE MILWAUKEE/SULLIVAN WI
1100 AM CST WED NOV 22 2017

NOTE: "FAIR" INDICATES FEW OR NO CLOUDS BELOW 12,000 FEET WITH NO
SIGNIFICANT WEATHER AND/OR OBSTRUCTIONS TO VISIBILITY.

WIZ001-002-006>008-014>016-023>028-221800-
NORTHWEST WISCONSIN

CITY           SKY/WX    TMP DP  RH WIND       PRES   REMARKS
SUPERIOR ARPT  CLOUDY    21  13  71 SW10      30.24F WCI  10
ASHLAND        CLOUDY    22  11  62 SW12      30.24F WCI  10
HAYWARD        CLOUDY    20  10  65 S14       30.23F WCI   7
SIREN          MOSUNNY   21  13  72 SW7       30.26S WCI  12
CUMBERLAND     CLOUDY    21  12  68 SW12      30.25S WCI   9
RICE LAKE      CLOUDY    21  13  70 S9        30.29R WCI  11
CHETEK         CLOUDY    20  12  70 S5        30.29S WCI  14
LADYSMITH      CLOUDY    22  12  66 S3        30.27F
EAU CLAIRE     NOT AVBL
MENOMONIE      MOSUNNY   24  13  62 S9        30.31S WCI  14
NEW RICHMOND   CLOUDY    21  12  68 S10       30.29S WCI  10
OSCEOLA        CLOUDY    22  14  71 S7        30.32S WCI  13
$$

WIZ003>005-009-010-017-018-221800-
NORTH CENTRAL WISCONSIN

CITY           SKY/WX    TMP DP  RH WIND       PRES   REMARKS
MANITOWISH WTR MOSUNNY   19  10  69 SW8       30.21F WCI   9
ARBOR VITAE    SUNNY     22  13  69 S9        30.22S WCI  11
WOODRUFF       SUNNY     22  13  69 S9        30.22S WCI  11
RHINELANDER    CLOUDY    21  12  68 S9        30.22F WCI  11
EAGLE RIVER    CLOUDY    21  12  68 W8        30.20F WCI  11
LAND O LAKES   CLOUDY    21  13  72 SW6       30.22F WCI  13
PHILLIPS       CLOUDY    19  10  65 SW8       30.23F WCI   9
TOMAHAWK       CLOUDY    22  11  61 CALM      30.25S
MEDFORD        CLOUDY    20  11  67 SW6       30.25F WCI  12
MERRILL        CLOUDY    25  11  57 SW7       30.26F WCI  17
$$

WIZ029-030-035-036-043>047-221800-
CENTRAL WISCONSIN

CITY           SKY/WX    TMP DP  RH WIND       PRES   REMARKS
WAUSAU         SUNNY     24  11  57 W7        30.26F WCI  16
MOSINEE        SUNNY     25  12  58 SW7       30.28F WCI  17
MARSHFIELD     SUNNY     23  11  60 S7        30.26F WCI  15
STEVENS POINT  SUNNY     22  10  59 SW7       30.29F WCI  14
WAUPACA        SUNNY     29  12  50 W6        30.32S WCI  23
WAUTOMA        NOT AVBL
WISC RAPIDS    SUNNY     25  13  60 SW9       30.30F WCI  15
CAMP DOUGLAS   SUNNY     25  12  58 SW6       30.31F WCI  18
$$

WIZ011>013-019>022-031-037>040-048>050-221800-
NORTHEAST WISCONSIN

CITY           SKY/WX    TMP DP  RH WIND       PRES   REMARKS
ANTIGO         CLOUDY    22  12  63 W8        30.24F WCI  13
SHAWANO        MOSUNNY   30  13  49 SW5       30.29F WCI  25
OCONTO         CLOUDY    27  13  56 SW5       30.30S WCI  21
STURGEON BAY   CLOUDY    27  15  61 W5        30.29S WCI  22
GREEN BAY      PTSUNNY   27  15  61 SW7       30.31S WCI  19
MANITOWOC      MOSUNNY   29  15  56 SW9       30.31  WCI  20
APPLETON       MOSUNNY   27  10  50 SW7       30.29S WCI  19
CLINTONVILLE   SUNNY     27  10  50 W8        30.31S WCI  18
OSHKOSH        SUNNY     26  14  60 W7        30.31F WCI  18
$$

WIZ032>034-041-042-053>061-221800-
SOUTHWEST WISCONSIN

CITY           SKY/WX    TMP DP  RH WIND       PRES   REMARKS
LA CROSSE      SUNNY     25  12  58 S8        30.33F WCI  16
SPARTA         SUNNY     24  13  64 S5        30.33F WCI  18
VIROQUA        SUNNY     24  16  74 S5        30.30F WCI  18
BOSCOBEL       SUNNY     28  14  55 W8        30.36F WCI  20
PRAIRIE DU CHI SUNNY     26  13  59 S6        30.37F WCI  19
PLATTEVILLE    SUNNY     26  18  70 SW6       30.35F WCI  20
$$

WIZ056-057-062-063-064-067-068-221800-
SOUTH CENTRAL WISCONSIN

CITY           SKY/WX    TMP DP  RH WIND       PRES   REMARKS
REEDSBURG      SUNNY     24  13  62 SW6       30.34F WCI  17
BARABOO/DELLS  SUNNY     25  13  60 SW7       30.34S WCI  17
LONE ROCK      NOT AVBL
MINERAL POINT  SUNNY     28  19  69 CALM      30.33S
MADISON        MOSUNNY   25  14  63 VRB7      30.34F WCI  17
MIDDLETON      SUNNY     28  15  58 W3        30.36S
WATERTOWN      SUNNY     26  15  63 W5        30.34S WCI  20
MONROE         SUNNY     27  14  59 CALM      30.34F
JANESVILLE     SUNNY     16  28 100 CALM      30.35F
$$

WIZ051-052-058>065-066-070>072-221800-
SOUTHEAST WISCONSIN

CITY           SKY/WX    TMP DP  RH WIND       PRES   REMARKS
MILWAUKEE      MOSUNNY   30  14  51 W8        30.34S WCI  22
WAUKESHA       SUNNY     27  12  54 SW8       30.35R WCI  18
MILWAUKEE/TIMM SUNNY     28  10  47 SW7       30.35R WCI  21
RACINE         SUNNY     29  16  58 SW7       30.35F WCI  22
BURLINGTON     SUNNY     31  21  64 SW6       30.35S WCI  26
KENOSHA        SUNNY     30  17  58 VRB3      30.35S
FOND DU LAC    SUNNY     27  12  53 SW6       30.33S WCI  20
SHEBOYGAN      MOSUNNY   27  14  58 CALM      30.31F
WEST BEND      SUNNY     28  14  54 W3        30.33R
JUNEAU         SUNNY     24  14  66 SW8       30.34S WCI  15
$$

LSZ147-162-221800-
LAKE SUPERIOR

STATION/POSITION TIME  TEMP    WIND        PRES    WAVE
                       AIR SEA DIR/SP/G            HT/PER
                 (UTC) (F)     (DEG/KT/KT) (MB)    (FT/S)
DEVILS ISLAND    1600   22     230/ 18/ 22 1025.0F
SAXON HARBOR     1630   22     220/ 10/ 14 1024.0F
$$

LMZ867-665-643>646-221800-
LAKE MICHIGAN

STATION/POSITION TIME  TEMP    WIND        PRES    WAVE
                       AIR SEA DIR/SP/G            HT/PER
                 (UTC) (F)     (DEG/KT/KT) (MB)    (FT/S)
N MID LAKE BUOY  1550   30 47  330/  4/  8 1026.3R   2/ 4
NORTHPORT PIER   1640   29     280/  3/  5 1024.7F
KEWAUNEE LAKESHO 1630   28     210/  2/  4 1025.2F
SHEBOYGAN LAKESH 1600   26     240/  1/  3 1027.7S
PORT WASHINGTON  1640   28     300/  3/ 10 1028.1S
MILWAUKEE LAKESH 1630   28     240/  2/  3   N/A
S MID LAKE BUOY  1550   31 47  260/  4/  8 1028.0R   3/ 7
KENOSHA   LAKESH 1600   27     290/  5/  8 1027.8
$$

TC  - TEMPERATURE IN CELSIUS
VSB - VISIBILITY IN STATUTE MILES
WCI - WIND CHILL INDEX
HX  - HEAT INDEX





USA.gov is the U.S. government's official web portal to all federal, state and local government web resources and services.